Location: ??????
(56.0120°N, 39.1740°E)
Time: 21:58:29
(UTC+00:00)

Cosmos 2150 Rocket - Pass Details

Date: 14 April 2026
Orbit: 745 x 803 km, 74.0° (Epoch: 11 May)

Event Time Altitude Azimuth Distance (km) Brightness Sun altitude
Exits shadow 19:28:20 43° 143° (SE) 1,053 4.2 -20.1°
Maximum altitude 19:29:19 49° 109° (ESE) 973 4.2 -20.2°
Drops below altitude 10° 19:34:19 10° 36° (NE) 2,301 6.8 -20.5°
Sets 19:36:46 0° 31° (NNE) 3,239 7.7 -20.7°
